contact:dominique.lefevre@mio.osupytheas.fr, maurice.libes@osupytheas.fr, didier.mallarino@osupytheas.fr
Project:EMSO http://www.emso-fr.org/EMSO-France
Depth: 2436.0 m
Title:EMSO Ligure Ouest : Data MII capteur MICROCAT
DateTime_Computer,Latitude,Longitude,Temperature,Conductivity,Pressure,DateTime_Instrument
DateTime_Computer,Latitude,Longitude,degC,S m-1,dbar,DateTime_Instrument
2022-04-19T00:00:19Z,42.805,6.029,13.3015,4.60068,2470.483,2022-4-19T02:01:58Z
2022-04-19T00:03:22Z,42.805,6.029,13.3019,4.60073,2470.52,2022-4-19T02:05:01Z
2022-04-19T00:06:25Z,42.805,6.029,13.3024,4.60079,2470.507,2022-4-19T02:08:04Z
2022-04-19T00:09:29Z,42.805,6.029,13.3011,4.60067,2470.483,2022-4-19T02:11:07Z
2022-04-19T00:12:32Z,42.805,6.029,13.3024,4.60070,2470.52,2022-4-19T02:14:10Z
2022-04-19T00:15:35Z,42.805,6.029,13.3024,4.60095,2470.497,2022-4-19T02:17:14Z
2022-04-19T00:18:38Z,42.805,6.029,13.3015,4.60067,2470.497,2022-4-19T02:20:17Z
2022-04-19T00:21:41Z,42.805,6.029,13.3020,4.60097,2470.46,2022-4-19T02:23:20Z
2022-04-19T00:24:44Z,42.805,6.029,13.3020,4.60089,2470.483,2022-4-19T02:26:23Z
2022-04-19T00:27:47Z,42.805,6.029,13.3016,4.60069,2470.474,2022-4-19T02:29:26Z
2022-04-19T00:30:50Z,42.805,6.029,13.3015,4.60072,2470.46,2022-4-19T02:32:29Z
2022-04-19T00:33:54Z,42.805,6.029,13.3021,4.60081,2470.497,2022-4-19T02:35:32Z
2022-04-19T00:36:57Z,42.805,6.029,13.3017,4.60092,2470.497,2022-4-19T02:38:35Z
2022-04-19T00:40:00Z,42.805,6.029,13.3015,4.60088,2470.507,2022-4-19T02:41:39Z
2022-04-19T00:43:03Z,42.805,6.029,13.3021,4.60085,2470.483,2022-4-19T02:44:42Z
2022-04-19T00:46:06Z,42.805,6.029,13.3024,4.60084,2470.497,2022-4-19T02:47:45Z
2022-04-19T00:49:09Z,42.805,6.029,13.3021,4.60079,2470.46,2022-4-19T02:50:48Z
2022-04-19T00:52:12Z,42.805,6.029,13.3021,4.60067,2470.497,2022-4-19T02:53:51Z
2022-04-19T00:55:15Z,42.805,6.029,13.3013,4.60067,2470.46,2022-4-19T02:56:54Z
2022-04-19T00:58:19Z,42.805,6.029,13.3020,4.60075,2470.437,2022-4-19T02:59:57Z
2022-04-19T01:01:22Z,42.805,6.029,13.3014,4.60071,2470.46,2022-4-19T03:03:00Z
2022-04-19T01:04:25Z,42.805,6.029,13.3018,4.60082,2470.46,2022-4-19T03:06:04Z
2022-04-19T01:07:28Z,42.805,6.029,13.3020,4.60084,2470.46,2022-4-19T03:09:07Z
2022-04-19T01:10:31Z,42.805,6.029,13.3022,4.60087,2470.483,2022-4-19T03:12:10Z
2022-04-19T01:13:34Z,42.805,6.029,13.3024,4.60081,2470.46,2022-4-19T03:15:13Z
2022-04-19T01:16:37Z,42.805,6.029,13.3024,4.60084,2470.437,2022-4-19T03:18:16Z
2022-04-19T01:19:40Z,42.805,6.029,13.3015,4.60079,2470.483,2022-4-19T03:21:19Z
2022-04-19T01:22:43Z,42.805,6.029,13.3011,4.60066,2470.46,2022-4-19T03:24:22Z
2022-04-19T01:25:47Z,42.805,6.029,13.3015,4.60072,2470.413,2022-4-19T03:27:25Z
2022-04-19T01:28:50Z,42.805,6.029,13.3019,4.60080,2470.46,2022-4-19T03:30:28Z
2022-04-19T01:31:53Z,42.805,6.029,13.3014,4.60073,2470.46,2022-4-19T03:33:32Z
2022-04-19T01:34:56Z,42.805,6.029,13.3016,4.60080,2470.427,2022-4-19T03:36:35Z
2022-04-19T01:37:59Z,42.805,6.029,13.3015,4.60091,2470.437,2022-4-19T03:39:38Z
2022-04-19T01:41:02Z,42.805,6.029,13.3015,4.60081,2470.413,2022-4-19T03:42:41Z
2022-04-19T01:44:05Z,42.805,6.029,13.3024,4.60072,2470.437,2022-4-19T03:45:44Z
2022-04-19T01:47:08Z,42.805,6.029,13.3024,4.60072,2470.413,2022-4-19T03:48:47Z
2022-04-19T01:50:12Z,42.805,6.029,13.3017,4.60061,2470.423,2022-4-19T03:51:50Z
2022-04-19T01:53:15Z,42.805,6.029,13.3009,4.60085,2470.437,2022-4-19T03:54:53Z
2022-04-19T01:56:18Z,42.805,6.029,13.3017,4.60081,2470.45,2022-4-19T03:57:57Z
2022-04-19T01:59:21Z,42.805,6.029,13.3019,4.60080,2470.413,2022-4-19T04:01:00Z
2022-04-19T02:02:24Z,42.805,6.029,13.3022,4.60086,2470.437,2022-4-19T04:04:03Z
2022-04-19T02:05:27Z,42.805,6.029,13.3014,4.60067,2470.437,2022-4-19T04:07:06Z
2022-04-19T02:08:30Z,42.805,6.029,13.3011,4.60061,2470.45,2022-4-19T04:10:09Z
2022-04-19T02:11:33Z,42.805,6.029,13.3019,4.60062,2470.437,2022-4-19T04:13:12Z
2022-04-19T02:14:37Z,42.805,6.029,13.3014,4.60079,2470.46,2022-4-19T04:16:15Z
2022-04-19T02:17:40Z,42.805,6.029,13.3014,4.60087,2470.437,2022-4-19T04:19:18Z
2022-04-19T02:20:43Z,42.805,6.029,13.3013,4.60064,2470.45,2022-4-19T04:22:22Z
2022-04-19T02:23:46Z,42.805,6.029,13.3015,4.60084,2470.427,2022-4-19T04:25:25Z
2022-04-19T02:26:49Z,42.805,6.029,13.3023,4.60081,2470.413,2022-4-19T04:28:28Z
2022-04-19T02:29:52Z,42.805,6.029,13.3015,4.60068,2470.437,2022-4-19T04:31:31Z
2022-04-19T02:32:55Z,42.805,6.029,13.3010,4.60069,2470.413,2022-4-19T04:34:34Z
2022-04-19T02:35:58Z,42.805,6.029,13.3016,4.60079,2470.413,2022-4-19T04:37:37Z
2022-04-19T02:39:02Z,42.805,6.029,13.3017,4.60083,2470.45,2022-4-19T04:40:40Z
2022-04-19T02:42:05Z,42.805,6.029,13.3015,4.60077,2470.39,2022-4-19T04:43:43Z
2022-04-19T02:45:08Z,42.805,6.029,13.3013,4.60073,2470.39,2022-4-19T04:46:47Z
2022-04-19T02:48:11Z,42.805,6.029,13.3011,4.60069,2470.413,2022-4-19T04:49:50Z
2022-04-19T02:51:14Z,42.805,6.029,13.3022,4.60072,2470.39,2022-4-19T04:52:53Z
2022-04-19T02:54:17Z,42.805,6.029,13.3019,4.60082,2470.39,2022-4-19T04:55:56Z
2022-04-19T02:57:20Z,42.805,6.029,13.3014,4.60072,2470.45,2022-4-19T04:58:59Z
2022-04-19T03:00:23Z,42.805,6.029,13.3014,4.60072,2470.413,2022-4-19T05:02:02Z
2022-04-19T03:03:26Z,42.805,6.029,13.3017,4.60081,2470.39,2022-4-19T05:05:05Z
2022-04-19T03:06:30Z,42.805,6.029,13.3008,4.60061,2470.404,2022-4-19T05:08:08Z
2022-04-19T03:09:33Z,42.805,6.029,13.3015,4.60064,2470.413,2022-4-19T05:11:11Z
2022-04-19T03:12:36Z,42.805,6.029,13.3015,4.60068,2470.413,2022-4-19T05:14:15Z
2022-04-19T03:15:39Z,42.805,6.029,13.3015,4.60081,2470.399,2022-4-19T05:17:18Z
2022-04-19T03:18:42Z,42.805,6.029,13.3015,4.60063,2470.404,2022-4-19T05:20:21Z
2022-04-19T03:21:45Z,42.805,6.029,13.3011,4.60058,2470.404,2022-4-19T05:23:24Z
2022-04-19T03:24:48Z,42.805,6.029,13.3012,4.60067,2470.404,2022-4-19T05:26:27Z
2022-04-19T03:27:51Z,42.805,6.029,13.3004,4.60067,2470.437,2022-4-19T05:29:30Z
2022-04-19T03:30:55Z,42.805,6.029,13.3010,4.60061,2470.427,2022-4-19T05:32:33Z
2022-04-19T03:33:58Z,42.805,6.029,13.3019,4.60070,2470.413,2022-4-19T05:35:36Z
2022-04-19T03:37:01Z,42.805,6.029,13.3016,4.60072,2470.413,2022-4-19T05:38:40Z
2022-04-19T03:40:04Z,42.805,6.029,13.3016,4.60069,2470.413,2022-4-19T05:41:43Z
2022-04-19T03:43:07Z,42.805,6.029,13.3013,4.60059,2470.45,2022-4-19T05:44:46Z
2022-04-19T03:46:10Z,42.805,6.029,13.3016,4.60067,2470.437,2022-4-19T05:47:49Z
2022-04-19T03:49:13Z,42.805,6.029,13.3016,4.60069,2470.427,2022-4-19T05:50:52Z
2022-04-19T03:52:16Z,42.805,6.029,13.3013,4.60070,2470.413,2022-4-19T05:53:55Z
2022-04-19T03:55:20Z,42.805,6.029,13.3018,4.60068,2470.413,2022-4-19T05:56:58Z
2022-04-19T03:58:23Z,42.805,6.029,13.3016,4.60067,2470.45,2022-4-19T06:00:01Z
2022-04-19T04:01:26Z,42.805,6.029,13.3014,4.60068,2470.39,2022-4-19T06:03:05Z
2022-04-19T04:04:29Z,42.805,6.029,13.3014,4.60068,2470.427,2022-4-19T06:06:08Z
2022-04-19T04:07:32Z,42.805,6.029,13.3014,4.60064,2470.427,2022-4-19T06:09:11Z
2022-04-19T04:10:35Z,42.805,6.029,13.3009,4.60072,2470.413,2022-4-19T06:12:14Z
2022-04-19T04:13:38Z,42.805,6.029,13.3009,4.60067,2470.45,2022-4-19T06:15:17Z
2022-04-19T04:16:41Z,42.805,6.029,13.3019,4.60062,2470.437,2022-4-19T06:18:20Z
2022-04-19T04:19:44Z,42.805,6.029,13.3016,4.60062,2470.413,2022-4-19T06:21:23Z
2022-04-19T04:22:48Z,42.805,6.029,13.3011,4.60074,2470.413,2022-4-19T06:24:26Z
2022-04-19T04:25:51Z,42.805,6.029,13.3008,4.60061,2470.413,2022-4-19T06:27:29Z
2022-04-19T04:28:54Z,42.805,6.029,13.3011,4.60077,2470.427,2022-4-19T06:30:33Z
2022-04-19T04:31:57Z,42.805,6.029,13.3015,4.60068,2470.427,2022-4-19T06:33:36Z
2022-04-19T04:35:00Z,42.805,6.029,13.3007,4.60069,2470.45,2022-4-19T06:36:39Z
2022-04-19T04:38:03Z,42.805,6.029,13.3011,4.60054,2470.437,2022-4-19T06:39:42Z
2022-04-19T04:41:06Z,42.805,6.029,13.3011,4.60067,2470.437,2022-4-19T06:42:45Z
2022-04-19T04:44:09Z,42.805,6.029,13.3012,4.60067,2470.474,2022-4-19T06:45:48Z
2022-04-19T04:47:13Z,42.805,6.029,13.3019,4.60067,2470.474,2022-4-19T06:48:51Z
2022-04-19T04:50:16Z,42.805,6.029,13.3011,4.60068,2470.45,2022-4-19T06:51:54Z
2022-04-19T04:53:19Z,42.805,6.029,13.3014,4.60081,2470.437,2022-4-19T06:54:58Z
2022-04-19T04:56:22Z,42.805,6.029,13.3014,4.60068,2470.423,2022-4-19T06:58:01Z
2022-04-19T04:59:25Z,42.805,6.029,13.3019,4.60063,2470.437,2022-4-19T07:01:04Z
2022-04-19T05:02:28Z,42.805,6.029,13.3013,4.60064,2470.437,2022-4-19T07:04:07Z
2022-04-19T05:05:31Z,42.805,6.029,13.3012,4.60067,2470.46,2022-4-19T07:07:10Z
2022-04-19T05:08:34Z,42.805,6.029,13.3016,4.60065,2470.45,2022-4-19T07:10:13Z
2022-04-19T05:11:38Z,42.805,6.029,13.3014,4.60069,2470.413,2022-4-19T07:13:16Z
2022-04-19T05:14:41Z,42.805,6.029,13.3019,4.60077,2470.46,2022-4-19T07:16:19Z
2022-04-19T05:17:44Z,42.805,6.029,13.3015,4.60064,2470.483,2022-4-19T07:19:23Z
2022-04-19T05:20:47Z,42.805,6.029,13.3013,4.60074,2470.483,2022-4-19T07:22:26Z
2022-04-19T05:23:50Z,42.805,6.029,13.3019,4.60071,2470.474,2022-4-19T07:25:29Z
2022-04-19T05:26:53Z,42.805,6.029,13.3009,4.60072,2470.46,2022-4-19T07:28:32Z
2022-04-19T05:29:56Z,42.805,6.029,13.3014,4.60080,2470.483,2022-4-19T07:31:35Z
2022-04-19T05:32:59Z,42.805,6.029,13.3020,4.60074,2470.46,2022-4-19T07:34:38Z
2022-04-19T05:36:03Z,42.805,6.029,13.3018,4.60079,2470.497,2022-4-19T07:37:41Z
2022-04-19T05:39:06Z,42.805,6.029,13.3021,4.60084,2470.507,2022-4-19T07:40:44Z
2022-04-19T05:42:09Z,42.805,6.029,13.3015,4.60071,2470.483,2022-4-19T07:43:48Z
2022-04-19T05:45:12Z,42.805,6.029,13.3019,4.60067,2470.507,2022-4-19T07:46:51Z
2022-04-19T05:48:15Z,42.805,6.029,13.3017,4.60064,2470.507,2022-4-19T07:49:54Z
2022-04-19T05:51:18Z,42.805,6.029,13.3014,4.60079,2470.567,2022-4-19T07:52:57Z
2022-04-19T05:54:21Z,42.805,6.029,13.3014,4.60075,2470.507,2022-4-19T07:56:00Z
2022-04-19T05:57:24Z,42.805,6.029,13.3016,4.60069,2470.497,2022-4-19T07:59:03Z
2022-04-19T06:00:27Z,42.805,6.029,13.3014,4.60067,2470.507,2022-4-19T08:02:06Z
2022-04-19T06:03:31Z,42.805,6.029,13.3010,4.60064,2470.497,2022-4-19T08:05:09Z
2022-04-19T06:06:34Z,42.805,6.029,13.3014,4.60087,2470.507,2022-4-19T08:08:12Z
2022-04-19T06:09:37Z,42.805,6.029,13.3019,4.60081,2470.507,2022-4-19T08:11:16Z
2022-04-19T06:12:40Z,42.805,6.029,13.3011,4.60079,2470.544,2022-4-19T08:14:19Z
2022-04-19T06:15:43Z,42.805,6.029,13.3021,4.60086,2470.52,2022-4-19T08:17:22Z
2022-04-19T06:18:46Z,42.805,6.029,13.3016,4.60076,2470.53,2022-4-19T08:20:25Z
2022-04-19T06:21:49Z,42.805,6.029,13.3014,4.60072,2470.507,2022-4-19T08:23:28Z
2022-04-19T06:24:52Z,42.805,6.029,13.3014,4.60063,2470.567,2022-4-19T08:26:31Z
2022-04-19T06:27:56Z,42.805,6.029,13.3015,4.60060,2470.553,2022-4-19T08:29:34Z
2022-04-19T06:30:59Z,42.805,6.029,13.3014,4.60064,2470.567,2022-4-19T08:32:37Z
2022-04-19T06:34:02Z,42.805,6.029,13.3021,4.60077,2470.567,2022-4-19T08:35:41Z
2022-04-19T06:37:05Z,42.805,6.029,13.3022,4.60085,2470.577,2022-4-19T08:38:44Z
2022-04-19T06:40:08Z,42.805,6.029,13.3011,4.60072,2470.52,2022-4-19T08:41:47Z
2022-04-19T06:43:11Z,42.805,6.029,13.3019,4.60089,2470.553,2022-4-19T08:44:50Z
2022-04-19T06:46:14Z,42.805,6.029,13.3016,4.60091,2470.553,2022-4-19T08:47:53Z
2022-04-19T06:49:17Z,42.805,6.029,13.3020,4.60083,2470.553,2022-4-19T08:50:56Z
2022-04-19T06:52:21Z,42.805,6.029,13.3022,4.60084,2470.53,2022-4-19T08:53:59Z
2022-04-19T06:55:24Z,42.805,6.029,13.3019,4.60090,2470.553,2022-4-19T08:57:02Z
2022-04-19T06:58:27Z,42.805,6.029,13.3015,4.60072,2470.53,2022-4-19T09:00:05Z
2022-04-19T07:01:30Z,42.805,6.029,13.3017,4.60074,2470.553,2022-4-19T09:03:09Z
2022-04-19T07:04:33Z,42.805,6.029,13.3018,4.60079,2470.567,2022-4-19T09:06:12Z
2022-04-19T07:07:36Z,42.805,6.029,13.3017,4.60091,2470.577,2022-4-19T09:09:15Z
2022-04-19T07:10:39Z,42.805,6.029,13.3024,4.60089,2470.577,2022-4-19T09:12:18Z
2022-04-19T07:13:42Z,42.805,6.029,13.3029,4.60084,2470.577,2022-4-19T09:15:21Z
2022-04-19T07:16:45Z,42.805,6.029,13.3024,4.60085,2470.553,2022-4-19T09:18:24Z
2022-04-19T07:19:49Z,42.805,6.029,13.3022,4.60074,2470.591,2022-4-19T09:21:27Z
2022-04-19T07:22:52Z,42.805,6.029,13.3021,4.60072,2470.614,2022-4-19T09:24:30Z
2022-04-19T07:25:55Z,42.805,6.029,13.3020,4.60085,2470.577,2022-4-19T09:27:34Z
2022-04-19T07:28:58Z,42.805,6.029,13.3014,4.60066,2470.614,2022-4-19T09:30:37Z
2022-04-19T07:32:01Z,42.805,6.029,13.3020,4.60081,2470.577,2022-4-19T09:33:40Z
2022-04-19T07:35:04Z,42.805,6.029,13.3013,4.60074,2470.591,2022-4-19T09:36:43Z
2022-04-19T07:38:07Z,42.805,6.029,13.3016,4.60087,2470.6,2022-4-19T09:39:46Z
2022-04-19T07:41:10Z,42.805,6.029,13.3014,4.60063,2470.6,2022-4-19T09:42:49Z
2022-04-19T07:44:14Z,42.805,6.029,13.3021,4.60075,2470.553,2022-4-19T09:45:52Z
2022-04-19T07:47:17Z,42.805,6.029,13.3019,4.60089,2470.637,2022-4-19T09:48:55Z
2022-04-19T07:50:20Z,42.805,6.029,13.3016,4.60074,2470.577,2022-4-19T09:51:59Z
2022-04-19T07:53:23Z,42.805,6.029,13.3016,4.60090,2470.6,2022-4-19T09:55:02Z
2022-04-19T07:56:26Z,42.805,6.029,13.3025,4.60092,2470.577,2022-4-19T09:58:05Z
2022-04-19T07:59:29Z,42.805,6.029,13.3033,4.60077,2470.6,2022-4-19T10:01:08Z
2022-04-19T08:02:32Z,42.805,6.029,13.3019,4.60091,2470.6,2022-4-19T10:04:11Z
2022-04-19T08:05:35Z,42.805,6.029,13.3029,4.60084,2470.6,2022-4-19T10:07:14Z
2022-04-19T08:08:39Z,42.805,6.029,13.3015,4.60074,2470.591,2022-4-19T10:10:17Z
2022-04-19T08:11:42Z,42.805,6.029,13.3019,4.60085,2470.614,2022-4-19T10:13:20Z
2022-04-19T08:14:45Z,42.805,6.029,13.3018,4.60099,2470.6,2022-4-19T10:16:24Z
2022-04-19T08:17:48Z,42.805,6.029,13.3017,4.60075,2470.6,2022-4-19T10:19:27Z
2022-04-19T08:20:51Z,42.805,6.029,13.3017,4.60072,2470.614,2022-4-19T10:22:30Z
2022-04-19T08:23:54Z,42.805,6.029,13.3018,4.60074,2470.591,2022-4-19T10:25:33Z
2022-04-19T08:26:57Z,42.805,6.029,13.3024,4.60081,2470.6,2022-4-19T10:28:36Z
2022-04-19T08:30:00Z,42.805,6.029,13.3021,4.60073,2470.6,2022-4-19T10:31:39Z
2022-04-19T08:33:04Z,42.805,6.029,13.3014,4.60092,2470.6,2022-4-19T10:34:42Z
2022-04-19T08:36:07Z,42.805,6.029,13.3009,4.60066,2470.637,2022-4-19T10:37:45Z
2022-04-19T08:39:10Z,42.805,6.029,13.3021,4.60091,2470.591,2022-4-19T10:40:49Z
2022-04-19T08:42:13Z,42.805,6.029,13.3016,4.60077,2470.646,2022-4-19T10:43:52Z
2022-04-19T08:45:16Z,42.805,6.029,13.3012,4.60070,2470.6,2022-4-19T10:46:55Z
2022-04-19T08:48:19Z,42.805,6.029,13.3015,4.60069,2470.614,2022-4-19T10:49:58Z
2022-04-19T08:51:22Z,42.805,6.029,13.3015,4.60067,2470.6,2022-4-19T10:53:01Z
2022-04-19T08:54:25Z,42.805,6.029,13.3015,4.60084,2470.591,2022-4-19T10:56:04Z
2022-04-19T08:57:29Z,42.805,6.029,13.3023,4.60081,2470.6,2022-4-19T10:59:07Z
2022-04-19T09:00:32Z,42.805,6.029,13.3015,4.60067,2470.577,2022-4-19T11:02:10Z
2022-04-19T09:03:35Z,42.805,6.029,13.3014,4.60066,2470.553,2022-4-19T11:05:14Z
2022-04-19T09:06:38Z,42.805,6.029,13.3019,4.60073,2470.6,2022-4-19T11:08:17Z
2022-04-19T09:09:41Z,42.805,6.029,13.3014,4.60063,2470.577,2022-4-19T11:11:20Z
2022-04-19T09:12:44Z,42.805,6.029,13.3026,4.60068,2470.614,2022-4-19T11:14:23Z
2022-04-19T09:15:47Z,42.805,6.029,13.3024,4.60089,2470.567,2022-4-19T11:17:26Z
2022-04-19T09:18:50Z,42.805,6.029,13.3022,4.60103,2470.577,2022-4-19T11:20:29Z
2022-04-19T09:21:54Z,42.805,6.029,13.3011,4.60070,2470.591,2022-4-19T11:23:32Z
2022-04-19T09:24:57Z,42.805,6.029,13.3025,4.60081,2470.553,2022-4-19T11:26:35Z
2022-04-19T09:28:00Z,42.805,6.029,13.3017,4.60069,2470.567,2022-4-19T11:29:39Z
2022-04-19T09:31:03Z,42.805,6.029,13.3016,4.60071,2470.553,2022-4-19T11:32:42Z
2022-04-19T09:34:06Z,42.805,6.029,13.3014,4.60071,2470.553,2022-4-19T11:35:45Z
2022-04-19T09:37:09Z,42.805,6.029,13.3014,4.60093,2470.553,2022-4-19T11:38:48Z
2022-04-19T09:40:12Z,42.805,6.029,13.3024,4.60078,2470.53,2022-4-19T11:41:51Z
2022-04-19T09:43:15Z,42.805,6.029,13.3015,4.60076,2470.553,2022-4-19T11:44:54Z
2022-04-19T09:46:19Z,42.805,6.029,13.3022,4.60078,2470.567,2022-4-19T11:47:57Z
2022-04-19T09:49:22Z,42.805,6.029,13.3014,4.60070,2470.567,2022-4-19T11:51:00Z
2022-04-19T09:52:25Z,42.805,6.029,13.3017,4.60066,2470.507,2022-4-19T11:54:04Z
2022-04-19T09:55:28Z,42.805,6.029,13.3016,4.60062,2470.553,2022-4-19T11:57:07Z
2022-04-19T09:58:31Z,42.805,6.029,13.3020,4.60073,2470.53,2022-4-19T12:00:10Z
2022-04-19T10:01:34Z,42.805,6.029,13.3019,4.60067,2470.53,2022-4-19T12:03:13Z
2022-04-19T10:04:37Z,42.805,6.029,13.3019,4.60064,2470.553,2022-4-19T12:06:16Z
2022-04-19T10:07:40Z,42.805,6.029,13.3015,4.60062,2470.52,2022-4-19T12:09:19Z
2022-04-19T10:10:44Z,42.805,6.029,13.3011,4.60073,2470.52,2022-4-19T12:12:22Z
2022-04-19T10:13:47Z,42.805,6.029,13.3016,4.60064,2470.52,2022-4-19T12:15:25Z
2022-04-19T10:16:50Z,42.805,6.029,13.3017,4.60061,2470.544,2022-4-19T12:18:29Z
2022-04-19T10:19:53Z,42.805,6.029,13.3009,4.60064,2470.52,2022-4-19T12:21:32Z
2022-04-19T10:22:56Z,42.805,6.029,13.3014,4.60056,2470.53,2022-4-19T12:24:35Z
2022-04-19T10:25:59Z,42.805,6.029,13.3015,4.60058,2470.493,2022-4-19T12:27:38Z
2022-04-19T10:29:02Z,42.805,6.029,13.3015,4.60057,2470.483,2022-4-19T12:30:41Z
2022-04-19T10:32:06Z,42.805,6.029,13.3012,4.60060,2470.53,2022-4-19T12:33:44Z
2022-04-19T10:35:09Z,42.805,6.029,13.3012,4.60055,2470.544,2022-4-19T12:36:47Z
2022-04-19T10:38:12Z,42.805,6.029,13.3012,4.60056,2470.483,2022-4-19T12:39:50Z
2022-04-19T10:41:15Z,42.805,6.029,13.3005,4.60056,2470.507,2022-4-19T12:42:54Z
2022-04-19T10:44:18Z,42.805,6.029,13.3013,4.60069,2470.474,2022-4-19T12:45:57Z
2022-04-19T10:47:21Z,42.805,6.029,13.3014,4.60055,2470.483,2022-4-19T12:49:00Z
2022-04-19T10:50:24Z,42.805,6.029,13.3019,4.60076,2470.483,2022-4-19T12:52:03Z
2022-04-19T10:53:27Z,42.805,6.029,13.3014,4.60064,2470.483,2022-4-19T12:55:06Z
2022-04-19T10:56:30Z,42.805,6.029,13.3024,4.60062,2470.497,2022-4-19T12:58:09Z
2022-04-19T10:59:34Z,42.805,6.029,13.3019,4.60067,2470.474,2022-4-19T13:01:12Z
2022-04-19T11:02:37Z,42.805,6.029,13.3014,4.60069,2470.483,2022-4-19T13:04:15Z
2022-04-19T11:05:40Z,42.805,6.029,13.3015,4.60064,2470.474,2022-4-19T13:07:19Z
2022-04-19T11:08:43Z,42.805,6.029,13.3016,4.60060,2470.483,2022-4-19T13:10:22Z
2022-04-19T11:11:46Z,42.805,6.029,13.3018,4.60057,2470.46,2022-4-19T13:13:25Z
2022-04-19T11:14:49Z,42.805,6.029,13.3015,4.60077,2470.483,2022-4-19T13:16:28Z
2022-04-19T11:17:52Z,42.805,6.029,13.3014,4.60073,2470.46,2022-4-19T13:19:31Z
2022-04-19T11:20:56Z,42.805,6.029,13.3015,4.60059,2470.474,2022-4-19T13:22:34Z
2022-04-19T11:23:59Z,42.805,6.029,13.3014,4.60077,2470.46,2022-4-19T13:25:37Z
2022-04-19T11:27:02Z,42.805,6.029,13.3014,4.60072,2470.46,2022-4-19T13:28:40Z
2022-04-19T11:30:05Z,42.805,6.029,13.3014,4.60057,2470.46,2022-4-19T13:31:44Z
2022-04-19T11:33:08Z,42.805,6.029,13.3023,4.60067,2470.483,2022-4-19T13:34:47Z
2022-04-19T11:36:11Z,42.805,6.029,13.3021,4.60064,2470.474,2022-4-19T13:37:50Z
2022-04-19T11:39:14Z,42.805,6.029,13.3013,4.60066,2470.45,2022-4-19T13:40:53Z
2022-04-19T11:42:17Z,42.805,6.029,13.3014,4.60054,2470.46,2022-4-19T13:43:56Z
2022-04-19T11:45:21Z,42.805,6.029,13.3017,4.60059,2470.474,2022-4-19T13:46:59Z
2022-04-19T11:48:24Z,42.805,6.029,13.3019,4.60062,2470.46,2022-4-19T13:50:02Z
2022-04-19T11:51:27Z,42.805,6.029,13.3018,4.60064,2470.437,2022-4-19T13:53:05Z
2022-04-19T11:54:30Z,42.805,6.029,13.3018,4.60066,2470.46,2022-4-19T13:56:09Z
2022-04-19T11:57:33Z,42.805,6.029,13.3015,4.60066,2470.427,2022-4-19T13:59:12Z
2022-04-19T12:00:36Z,42.805,6.029,13.3019,4.60057,2470.413,2022-4-19T14:02:15Z
2022-04-19T12:03:39Z,42.805,6.029,13.3011,4.60054,2470.437,2022-4-19T14:05:18Z
2022-04-19T12:06:42Z,42.805,6.029,13.3014,4.60054,2470.474,2022-4-19T14:08:21Z
2022-04-19T12:09:46Z,42.805,6.029,13.3011,4.60050,2470.413,2022-4-19T14:11:24Z
2022-04-19T12:12:49Z,42.805,6.029,13.3014,4.60053,2470.474,2022-4-19T14:14:27Z
2022-04-19T12:15:52Z,42.805,6.029,13.3011,4.60054,2470.46,2022-4-19T14:17:30Z
2022-04-19T12:18:55Z,42.805,6.029,13.3019,4.60058,2470.437,2022-4-19T14:20:34Z
2022-04-19T12:21:58Z,42.805,6.029,13.3020,4.60069,2470.474,2022-4-19T14:23:37Z
2022-04-19T12:25:01Z,42.805,6.029,13.3014,4.60059,2470.45,2022-4-19T14:26:40Z
2022-04-19T12:28:04Z,42.805,6.029,13.3011,4.60053,2470.437,2022-4-19T14:29:43Z
2022-04-19T12:31:07Z,42.805,6.029,13.3010,4.60053,2470.437,2022-4-19T14:32:46Z
2022-04-19T12:34:11Z,42.805,6.029,13.3019,4.60053,2470.437,2022-4-19T14:35:49Z
2022-04-19T12:37:14Z,42.805,6.029,13.3014,4.60072,2470.413,2022-4-19T14:38:52Z
2022-04-19T12:40:17Z,42.805,6.029,13.3012,4.60067,2470.437,2022-4-19T14:41:56Z
2022-04-19T12:43:20Z,42.805,6.029,13.3007,4.60054,2470.437,2022-4-19T14:44:59Z
2022-04-19T12:46:23Z,42.805,6.029,13.3013,4.60059,2470.427,2022-4-19T14:48:02Z
2022-04-19T12:49:26Z,42.805,6.029,13.3011,4.60064,2470.39,2022-4-19T14:51:05Z
2022-04-19T12:52:29Z,42.805,6.029,13.3009,4.60060,2470.437,2022-4-19T14:54:08Z
2022-04-19T12:55:32Z,42.805,6.029,13.3013,4.60060,2470.427,2022-4-19T14:57:11Z
2022-04-19T12:58:36Z,42.805,6.029,13.3014,4.60065,2470.404,2022-4-19T15:00:14Z
2022-04-19T13:01:39Z,42.805,6.029,13.3007,4.60060,2470.413,2022-4-19T15:03:17Z
2022-04-19T13:04:42Z,42.805,6.029,13.3014,4.60069,2470.45,2022-4-19T15:06:21Z
2022-04-19T13:07:45Z,42.805,6.029,13.3021,4.60064,2470.427,2022-4-19T15:09:24Z
2022-04-19T13:10:48Z,42.805,6.029,13.3012,4.60059,2470.413,2022-4-19T15:12:27Z
2022-04-19T13:13:51Z,42.805,6.029,13.3011,4.60061,2470.474,2022-4-19T15:15:30Z
2022-04-19T13:16:54Z,42.805,6.029,13.3009,4.60056,2470.427,2022-4-19T15:18:33Z
2022-04-19T13:19:57Z,42.805,6.029,13.3021,4.60064,2470.427,2022-4-19T15:21:36Z
2022-04-19T13:23:01Z,42.805,6.029,13.3014,4.60072,2470.413,2022-4-19T15:24:39Z
2022-04-19T13:26:04Z,42.805,6.029,13.3011,4.60050,2470.39,2022-4-19T15:27:42Z
2022-04-19T13:29:07Z,42.805,6.029,13.3009,4.60054,2470.437,2022-4-19T15:30:45Z
2022-04-19T13:32:10Z,42.805,6.029,13.3008,4.60074,2470.441,2022-4-19T15:33:49Z
2022-04-19T13:35:13Z,42.805,6.029,13.3005,4.60049,2470.413,2022-4-19T15:36:52Z
2022-04-19T13:38:16Z,42.805,6.029,13.3018,4.60057,2470.39,2022-4-19T15:39:55Z
2022-04-19T13:41:19Z,42.805,6.029,13.3009,4.60046,2470.427,2022-4-19T15:42:58Z
2022-04-19T13:44:22Z,42.805,6.029,13.3014,4.60048,2470.427,2022-4-19T15:46:01Z
2022-04-19T13:47:25Z,42.805,6.029,13.3009,4.60053,2470.39,2022-4-19T15:49:04Z
2022-04-19T13:50:29Z,42.805,6.029,13.3005,4.60058,2470.413,2022-4-19T15:52:07Z
2022-04-19T13:53:32Z,42.805,6.029,13.3014,4.60069,2470.39,2022-4-19T15:55:10Z
2022-04-19T13:56:35Z,42.805,6.029,13.3007,4.60064,2470.38,2022-4-19T15:58:14Z
2022-04-19T13:59:38Z,42.805,6.029,13.3015,4.60053,2470.376,2022-4-19T16:01:17Z
2022-04-19T14:02:41Z,42.805,6.029,13.3018,4.60067,2470.39,2022-4-19T16:04:20Z
2022-04-19T14:05:44Z,42.805,6.029,13.3015,4.60069,2470.366,2022-4-19T16:07:23Z
2022-04-19T14:08:47Z,42.805,6.029,13.3020,4.60067,2470.39,2022-4-19T16:10:26Z
2022-04-19T14:11:51Z,42.805,6.029,13.3019,4.60057,2470.39,2022-4-19T16:13:29Z
2022-04-19T14:14:54Z,42.805,6.029,13.3014,4.60066,2470.343,2022-4-19T16:16:32Z
2022-04-19T14:17:57Z,42.805,6.029,13.3017,4.60065,2470.366,2022-4-19T16:19:36Z
2022-04-19T14:21:00Z,42.805,6.029,13.3008,4.60053,2470.39,2022-4-19T16:22:39Z
2022-04-19T14:24:03Z,42.805,6.029,13.3010,4.60068,2470.366,2022-4-19T16:25:42Z
2022-04-19T14:27:06Z,42.805,6.029,13.3009,4.60059,2470.39,2022-4-19T16:28:45Z
2022-04-19T14:30:09Z,42.805,6.029,13.3019,4.60061,2470.39,2022-4-19T16:31:48Z
2022-04-19T14:33:12Z,42.805,6.029,13.3007,4.60069,2470.38,2022-4-19T16:34:51Z
2022-04-19T14:36:16Z,42.805,6.029,13.3008,4.60055,2470.39,2022-4-19T16:37:54Z
2022-04-19T14:39:19Z,42.805,6.029,13.3007,4.60060,2470.366,2022-4-19T16:40:57Z
2022-04-19T14:42:22Z,42.805,6.029,13.3014,4.60067,2470.366,2022-4-19T16:44:01Z
2022-04-19T14:45:25Z,42.805,6.029,13.2999,4.60045,2470.38,2022-4-19T16:47:04Z
2022-04-19T14:48:28Z,42.805,6.029,13.3009,4.60053,2470.39,2022-4-19T16:50:07Z
2022-04-19T14:51:31Z,42.805,6.029,13.3011,4.60067,2470.366,2022-4-19T16:53:10Z
2022-04-19T14:54:34Z,42.805,6.029,13.3006,4.60053,2470.39,2022-4-19T16:56:13Z
2022-04-19T14:57:37Z,42.805,6.029,13.3007,4.60062,2470.366,2022-4-19T16:59:16Z
2022-04-19T15:00:41Z,42.805,6.029,13.3008,4.60067,2470.366,2022-4-19T17:02:19Z
2022-04-19T15:03:44Z,42.805,6.029,13.3013,4.60067,2470.366,2022-4-19T17:05:22Z
2022-04-19T15:06:47Z,42.805,6.029,13.3006,4.60063,2470.366,2022-4-19T17:08:26Z
2022-04-19T15:09:50Z,42.805,6.029,13.3015,4.60076,2470.38,2022-4-19T17:11:29Z
2022-04-19T15:12:53Z,42.805,6.029,13.3028,4.60074,2470.366,2022-4-19T17:14:32Z